|
Cosmos 1674 Rocket - Orbit
|
Cherry Springs State Park;
12:15:34
| Home | Info | Passes |
|
View from above orbital plane
|
View from above satellite
|
Ground track
|
The orbit data is extracted from the following two-line orbital elements,
1 15945U 85069B 13144.87528003 .00000473 00000-0 55026-4 0 3437
2 15945 082.5290 082.3425 0021455 135.6567 258.1385 14.83002817500962
| Epoch (UTC): | 24 May 2013 21:00:24 |
| Eccentricity: | 0.0021455 |
| inclination: | 82.5290° |
| perigee height: | 605 km |
| apogee height: | 635 km |
| right ascension of ascending node: | 82.3425° |
| argument of perigee: | 135.6567° |
| revolutions per day: | 14.83002817 |
| mean anomaly at epoch: | 258.1385° |
| orbit number at epoch: | 50096 |
The dashed part of the orbit path shows where the satellite is in the earth's shadow,
|
|